Content
SEND FEEDBACK

Daily
Averages
Monthly
Summary
United States of America

MONTAGUE, TEXAS


Home > North America > United States > Texas
Elevation: 1080 feet     Latitude: 33 40N     Longitude: 097 45W

WEATHER
 
SELECT A DAY
Number of Records: 281,696;   Date Range: 5/16/03 - 11/27/14
 
SHARE

PRINT THIS DATA

[ ← Previous Day ]
WEATHER ALMANAC - FEBRUARY 13, 2013
[ Next Day → ]
[ °C ]   °F
Weather ElementAverageHighLow
Temperature44.1 °F55.4 °F (2:55 pm)33.8 °F (5:55 am)
Dewpoint31.4 °F35.6 °F (12:35 am)23 °F (7:55 pm)
Humidity66.2 %100 % (12:35 am)33 % (4:55 pm)
Barometer30.07 in30.13 in (9:15 am)30.00 in (6:15 pm)
Wind Speed5.5 mph12.7 mph (12:35 am)
Wind Gust19.6 mph (12:35 am)
Weather ElementAverage
Visibility10 mi
Wind DirectionSSW (200 °)

Weather ElementTotal
Precipitation---
Heating Degree Days20.4 (Base 65)
Averaged from 71 records on February 13, 2013
WEATHER CONDITIONS BREAKOUT
WIND DIRECTION BREAKOUT
WEATHER BY HOUR - FEBRUARY 13, 2013
[ °C ]   °F
Local TimeTemperatureDewpointHumidityBarometerVisibilityWind DirectionWind SpeedGust SpeedPrecipitationEventsConditions
12:35 AM35.6 °F35.6 °F100 %30.07 in10.0 miNW (320°)12.7 mph19.6 mphOvercast
12:55 AM35.6 °F35.6 °F100 %30.07 in10.0 miNW (320°)9.2 mphOvercast
1:15 AM35.6 °F35.6 °F100 %30.07 in10.0 miWNW (300°)9.2 mphOvercast
1:35 AM35.6 °F35.6 °F100 %30.07 in10.0 miNW (310°)8.1 mphOvercast
1:55 AM35.6 °F35.6 °F100 %30.08 in10.0 miNW (310°)8.1 mphOvercast
2:15 AM35.6 °F33.8 °F93 %30.08 in10.0 miNW (320°)11.5 mph17.3 mphOvercast
2:35 AM35.6 °F33.8 °F93 %30.08 in10.0 miNW (320°)9.2 mphOvercast
2:55 AM35.6 °F33.8 °F93 %30.08 in10.0 miNW (310°)8.1 mphOvercast
3:15 AM35.6 °F33.8 °F93 %30.09 in10.0 miWNW (300°)12.7 mphOvercast
3:35 AM35.6 °F33.8 °F93 %30.08 in10.0 miNW (310°)10.4 mphOvercast
3:55 AM35.6 °F33.8 °F93 %30.08 in10.0 miNW (310°)10.4 mph17.3 mphOvercast
4:15 AM35.6 °F33.8 °F93 %30.08 in10.0 miNW (310°)9.2 mph16.1 mphOvercast
4:35 AM35.6 °F33.8 °F93 %30.07 in10.0 miNW (310°)9.2 mphOvercast
4:55 AM35.6 °F33.8 °F93 %30.07 in10.0 miNW (310°)11.5 mph18.4 mphOvercast
5:15 AM35.6 °F33.8 °F93 %30.08 in10.0 miNW (310°)6.9 mph19.6 mphOvercast
5:35 AM35.6 °F32.0 °F87 %30.09 in10.0 miNW (320°)11.5 mph16.1 mphOvercast
5:55 AM33.8 °F32.0 °F93 %30.09 in10.0 miNW (320°)8.1 mphOvercast
6:15 AM33.8 °F32.0 °F93 %30.09 in10.0 miNW (320°)5.8 mphOvercast
6:35 AM33.8 °F32.0 °F93 %30.09 in10.0 miNW (310°)5.8 mphOvercast
6:55 AM33.8 °F32.0 °F93 %30.09 in10.0 miNW (320°)11.5 mphOvercast
7:15 AM33.8 °F32.0 °F93 %30.10 in10.0 miNW (310°)5.8 mphOvercast
7:35 AM33.8 °F32.0 °F93 %30.10 in10.0 miWNW (300°)4.6 mphOvercast
7:55 AM33.8 °F32.0 °F93 %30.11 in10.0 miCalmScattered Clouds
8:15 AM33.8 °F33.8 °F100 %30.11 in7.0 miWNW (290°)3.5 mphClear
8:35 AM35.6 °F33.8 °F93 %30.12 in10.0 miCalmClear
8:55 AM35.6 °F33.8 °F93 %30.12 in10.0 miNW (320°)5.8 mphScattered Clouds
9:15 AM37.4 °F33.8 °F87 %30.13 in10.0 miWNW (300°)6.9 mphClear
9:35 AM37.4 °F33.8 °F87 %30.13 in10.0 miWNW (300°)5.8 mphClear
9:55 AM39.2 °F33.8 °F81 %30.13 in10.0 miWNW (300°)6.9 mphClear
10:15 AM41.0 °F33.8 °F76 %30.13 in10.0 miNW (310°)4.6 mphClear
10:35 AM41.0 °F33.8 °F76 %30.13 in10.0 miCalmClear
10:55 AM42.8 °F33.8 °F70 %30.13 in10.0 miWest (260°)3.5 mphClear
11:15 AM44.6 °F33.8 °F66 %30.13 in10.0 miCalmClear
11:35 AM44.6 °F33.8 °F66 %30.13 in10.0 miWest (280°)3.5 mphClear
11:55 AM46.4 °F33.8 °F62 %30.12 in10.0 miWSW (240°)4.6 mphClear
12:15 PM46.4 °F33.8 °F62 %30.11 in10.0 miWest (260°)4.6 mphClear
12:35 PM48.2 °F33.8 °F58 %30.10 in10.0 miWest (270°)4.6 mphClear
12:55 PM50.0 °F33.8 °F54 %30.09 in10.0 miCalmClear
1:15 PM51.8 °F32.0 °F47 %30.08 in10.0 miWest (270°)6.9 mphClear
1:35 PM51.8 °F32.0 °F47 %30.07 in10.0 miWest (280°)4.6 mphClear
1:55 PM53.6 °F32.0 °F44 %30.06 in10.0 miCalmClear
2:15 PM53.6 °F32.0 °F44 %30.05 in10.0 miWest (270°)9.2 mphClear
2:35 PM53.6 °F32.0 °F44 %30.04 in10.0 miCalmClear
2:55 PM55.4 °F32.0 °F41 %30.03 in10.0 miCalmClear
3:15 PM55.4 °F30.2 °F38 %30.03 in10.0 miWest (270°)10.4 mphClear
3:35 PM55.4 °F28.4 °F36 %30.02 in10.0 miCalmClear
3:55 PM55.4 °F28.4 °F36 %30.01 in10.0 miWest (270°)5.8 mphClear
4:15 PM55.4 °F28.4 °F36 %30.02 in10.0 miWNW (300°)4.6 mphClear
4:35 PM55.4 °F28.4 °F36 %30.02 in10.0 miWest (280°)6.9 mphClear
4:55 PM55.4 °F26.6 °F33 %30.02 in10.0 miCalmClear
5:15 PM55.4 °F26.6 °F33 %30.01 in10.0 miWest (280°)6.9 mphClear
5:35 PM55.4 °F26.6 °F33 %30.01 in10.0 miCalmClear
5:55 PM53.6 °F26.6 °F35 %30.01 in10.0 miCalmClear
6:15 PM53.6 °F26.6 °F35 %30.00 in10.0 miCalmClear
6:35 PM53.6 °F26.6 °F35 %30.01 in10.0 miCalmClear
6:55 PM51.8 °F26.6 °F38 %30.01 in10.0 miCalmClear
7:15 PM51.8 °F26.6 °F38 %30.01 in10.0 miCalmClear
7:35 PM51.8 °F24.8 °F35 %30.01 in10.0 miCalmClear
7:55 PM51.8 °F23.0 °F33 %30.02 in10.0 miCalmClear
8:15 PM51.8 °F23.0 °F33 %30.02 in10.0 miCalmClear
8:35 PM50.0 °F28.4 °F43 %30.02 in10.0 miSouth (180°)5.8 mphClear
8:55 PM50.0 °F30.2 °F47 %30.03 in10.0 miSouth (170°)5.8 mphClear
9:15 PM50.0 °F30.2 °F47 %30.03 in10.0 miSouth (170°)8.1 mphClear
9:35 PM48.2 °F30.2 °F50 %30.03 in10.0 miSouth (170°)8.1 mphClear
9:55 PM46.4 °F32.0 °F57 %30.03 in10.0 miSouth (170°)5.8 mphClear
10:15 PM46.4 °F32.0 °F57 %30.03 in10.0 miSouth (180°)8.1 mphClear
10:35 PM46.4 °F30.2 °F53 %30.04 in10.0 miSouth (190°)8.1 mphClear
10:55 PM46.4 °F30.2 °F53 %30.04 in10.0 miSouth (190°)6.9 mphClear
11:15 PM46.4 °F30.2 °F53 %30.04 in10.0 miSouth (180°)9.2 mphClear
11:35 PM46.4 °F30.2 °F53 %30.04 in10.0 miSouth (190°)8.1 mphClear
11:55 PM44.6 °F30.2 °F57 %30.04 in10.0 miSouth (190°)8.1 mphClear
Hourly data recorded from KLUD, located miles away from Montague, Texas







STORIES FROM OUR PARTNERS